{"data":{"norad_id":57230,"intl_designator":"2023-094N","name":"STARLINK-6250","alt_names":[],"object_type":"PAYLOAD","status":"ACTIVE","operator":null,"country":"US","launch_date":"2023-07-07","launch_site_code":"AFWTR","launch_vehicle":null,"mission":null,"orbit_class":"UNKNOWN","rcs_meters":null,"size_class":null,"mass_kg":null,"dimensions":null,"purposes":["comms"],"wikipedia_slug":null,"has_3d_model":false,"image_url":null,"decayed_at":null,"tle_current":{"epoch":"2026-05-25T04:52:04.101600Z","epoch_age_seconds":53913,"freshness":"FRESH","line1":"1 57230U 23094N   26145.20282525  .00000047  00000+0  11250-4 0  9992","line2":"2 57230  43.0053 318.9177 0001590 275.7686  84.2985 15.27574656158813","mean_motion":15.27574656,"eccentricity":0.000159,"inclination_deg":43.0053,"raan_deg":318.9177,"arg_perigee_deg":275.7686,"mean_anomaly_deg":84.2985,"bstar":1.125e-5,"rev_number":15881,"period_min":94.2670784923,"perigee_km":481.97416681122,"apogee_km":484.15602907837,"semimajor_km":6861.2020979448,"source":"CELESTRAK","updated_at":"2026-05-25T13:38:18.254241Z"}}}